User: anonymous   Login
Location: Caltech
(34.1382°N, 118.1253°W)
Time: 16:42:21
(UTC-07:00)
Language:

Cosmos 2333 Rocket - Orbit

View from above orbital plane
View from above orbital plane
View from above satellite
View from above satellite

Ground track
Ground track

The orbit data is extracted from the following two-line orbital elements,

1 24298U 96051B   15184.86548323 -.00000147  00000-0 -53423-4 0  9999
2 24298 070.8431 127.9341 0015764 173.8912 248.4279 14.12413111970967
Epoch (UTC): 03 July 2015 20:46:17
Eccentricity: 0.0015764
inclination: 70.8431°
perigee height: 840 km
apogee height: 862 km
right ascension of ascending node: 127.9341°
argument of perigee: 173.8912°
revolutions per day: 14.12413111
mean anomaly at epoch: 248.4279°
orbit number at epoch: 97096

The dashed part of the orbit path shows where the satellite is in the earth's shadow,  

DLR